CZ-6A DEB

Satellite information

Favourite Embed

Satellite Type and Status

DEBRISIN ORBIT

Key statistics

Satellite CZ-6A DEB at a glance.

Uptime

1129

Days in orbit

Revolutions

≈ 14.1

Per day

Orbit

SSO

Sun Synchronous Orbit

Inclination

98.8

Latest

Satellite identification and parameters

Extended collection of information and parameters for CZ-6A DEB.

Object identification

Identified? True

Debris? True

Object name: CZ-6A DEB

International designator: 2022-151AFL

Object number (NORAD): 56636

Object ID (CCSDS): 56636

Country: PEOPLES REPUBLIC OF CHINA (PRC)

Current information (Y/N): Y

RCS size: SMALL

Orbital parameters

Period: 101.987 minutes

Inclination: 98.8267 deg

SMA: 7230.851 km

Apoapsis: 906.342 km

Periapsis: 799.09 km

RAAN: 340.7588 deg

Eccentricy: 0.0074163

Argument of periapsis: 181.6592 deg

Mean anomaly: 178.4345 deg

Mean motion: 14.11947765 rev/day

Mean motion (dot): 0.00002287 rev/day2

B* drag term: 0.0012415 1/REarth

Two-line elements (TLE)

Creation date: Dec. 12, 2025, 7:26 a.m.

Reference frame: TEME

Reference center: EARTH

Epoch: Dec. 11, 2025, 10:44 p.m. UTC

TLE line 0: 0 CZ-6A DEB

TLE line 1: 1 56636U 22151AFL 25345.94741882 .00002287 00000-0 12415-2 0 9993

TLE line 2: 2 56636 98.8267 340.7588 0074163 181.6592 178.4345 14.11947765140479

Live tracking on map

Real-time ground track for satellite CZ-6A DEB.

In-orbit conjunctions

A list of the most updated potential collisions computed for object CZ-6A DEB.

Target Orbit TCA Probability of collision Miss distance Type
CZ-8 R/B LEO 2025-06-06 10:05:09 0.0001457534 122.0 (m) ROCKET BODY
SL-3 R/B LEO 2025-03-09 05:32:20 0.0003860338 266.0 (m) ROCKET BODY
CZ-6A DEB LEO 2025-02-19 18:49:49 0.0001237362 515.0 (m) DEBRIS
SL-3 R/B LEO 2024-10-03 13:19:43 0.0001265571 643.0 (m) ROCKET BODY
BREEZE-KM R/B SSO 2024-09-06 04:45:01 0.0002450747 527.0 (m) ROCKET BODY

Associated space launch

Chinese satellite reported for atmospheric/ocean/environmental/spatial parameter research purposes, details TBD.

CZ-6A DEB was lifted into orbit during the mission ‘Long March 6A | Yunhai 3’, on board a Long March 6A space rocket.

The launch took place on Nov. 11, 2022, 10:52 p.m. from Launch Complex 9A.

For more information about the launch, click the button.

Launch to space Long March 6A | Yunhai 3
Long March 6A | Yunhai 3

Agency: N/A

Status: Launch Successful

Launch date: Nov. 11, 2022, 10:52 p.m. UTC

Rocket: Long March 6A

Launch pad: Launch Complex 9A

Location: Taiyuan Satellite Launch Center, People's Republic of China

...

Latest news about this satellite

There are no fresh news available about this satellite. Check back as we update our databases every day.


Newsletter sign-up

Weekly statistics, charts and insights to help you stay on top of the space industry.